NOAA 16 DEB, 42379

Orbit data source: Space-Track

NOAA 16 DEB, 42379 is space debris in SSO originally from a launch on Thu, 21 Sep 2000 UTC launched from the Air Force Western Test Range (AFWTR). Debris objects in space refer to the collection of defunct objects orbiting the Earth. Examples of debris include non-operational satellites, rocket bodies, and fragments generated from explosions, collisions, or faulty payload assembly.

Loading next visibility...
Identifier
42379, 2000-055RX
Orbit
SSO
Country
Flag of USUS
Related business
Manufacturer
Unknown
Mission
Spacecraft
Bus & Motor
Unknown
Mass
Unknown
Launch date (UTC)
2000-09-21 (25 years ago)
Launch vehicle
Unknown
Launch site
Air Force Western Test Range (AFWTR)
Object type
Payload
Rocket body
Debris
Shape & HBR
Unknown shape, 0.1 m
Radar Cross Section
Small (<0.1 m²)

Expand to show TLE details & history
Last TLE update: 2 days ago

TLE from 2 days ago
0 NOAA 16 DEB
1 42379U 00055RX  25353.76770514  .00015999  00000-0  25581-2 0  9996
2 42379  98.9311 184.3644 0026698 296.7586  63.0887 14.71671535509750
Epoch: 2025-12-19T18:25Z
TLE epoch observation values (Epoch: 2025-12-19T18:25:29.724Z)
Latitude
0.00001°
Longitude
179.38642°
Altitude
650.253 km
Speed
7.537 km/s
True Right ascension
12h 17m 27s
True Declination
0° 00' 00"
Sunlit
Object was in daylight at epoch
Visualization orbit readout
Latitude
Unknown
Longitude
Unknown
Altitude
Unknown
Speed
Unknown
Apparent Right ascension
Unknown
Apparent Declination
Unknown
Sunlit
N/A
Visualization observer readout
Local Sidereal Time
18:25:10
Azimuth
Unknown
Elevation
Unknown
Doppler factor
Unknown
Orbital elements
Apogee altitude
671.609 km
Perigee altitude
634.067 km
Semi-major axis
7,030.975 km
Eccentricity
0.00267
Inclination
98.9311°
RAAN
184.3644°
Arg. of periapsis
296.7586°
True anomaly
63.36192°
Mean anomaly
63.0887°
Eccentric anomaly
63.22527°
Mean motion
3.68146 °/min
Orbital period
97.79 mins
BSTAR
0.0025581
Loading maneuver chart data...
Computing Atmospheric mass density...
Loading historical data...
Loading historical data...
Loading historical data...
Loading historical data...
Loading historical data...
Loading historical data...
Loading historical data...

Documentation

Showing up to 5 results
|